{"data":{"norad_id":61874,"intl_designator":"2024-204A","name":"STARLINK-11402 [DTC]","alt_names":[],"object_type":"PAYLOAD","status":"ACTIVE","operator":null,"country":"US","launch_date":"2024-11-09","launch_site_code":"AFWTR","launch_vehicle":null,"mission":null,"orbit_class":"UNKNOWN","rcs_meters":null,"size_class":null,"mass_kg":null,"dimensions":null,"purposes":["comms"],"wikipedia_slug":null,"has_3d_model":false,"image_url":null,"decayed_at":null,"tle_current":{"epoch":"2026-09-21T19:32:52.292832Z","epoch_age_seconds":74941,"freshness":"FRESH","line1":"1 61874U 24204A   26264.81449413  .00000196  00000+0  64774-5 0  9990","line2":"2 61874  53.1597 109.7996 0000997  92.5556 267.5577 15.69706338108305","mean_motion":15.69706338,"eccentricity":9.97e-5,"inclination_deg":53.1597,"raan_deg":109.7996,"arg_perigee_deg":92.5556,"mean_anomaly_deg":267.5577,"bstar":6.4774e-6,"rev_number":10830,"period_min":91.736904231064,"perigee_km":359.06546362172,"apogee_km":360.40899574311,"semimajor_km":6737.8742296824,"source":"CELESTRAK","updated_at":"2026-09-22T09:00:49.444599Z"}}}